Simultaneous Nadir Overpasses (SNOs) Predictions

Prediction of SNOs between GOES-15 and LANDSAT-8 Satellite Orbit:

Table of predicted SNOs for the next 14.0 days since TLE Epoch: 6/15/2022
Index Date Time (GOES-15) GOES-15 Lat,Lon LANDSAT-8 Lat,Lon Distance(km) Time Diff (sec)
1 06/16/2022 18:30:48 -0.19,-128.39 -0.89,-125.06 378.62 80
2 06/17/2022 06:54:52 0.17,-128.36 -0.25,-130.25 214.62 80
3 06/19/2022 06:40:02 0.19,-128.39 0.41,-127.30 124.00 80
4 06/19/2022 19:03:58 -0.16,-128.43 0.67,-132.46 457.16 80
5 06/21/2022 06:27:52 0.20,-128.42 1.08,-124.35 462.89 80
6 06/21/2022 18:51:47 -0.17,-128.46 0.06,-129.50 118.14 80
7 06/23/2022 18:36:56 -0.18,-128.48 -0.56,-126.54 220.73 80
8 06/24/2022 07:00:59 0.15,-128.46 -0.56,-131.72 371.79 80
9 06/26/2022 06:48:48 0.15,-128.47 0.07,-128.77 33.63 80
10 06/28/2022 06:33:58 0.16,-128.49 0.72,-125.81 303.91 80
11 06/28/2022 18:57:52 -0.13,-128.52 0.41,-130.96 278.14 80
